Location: Czekanka
(50.4925°N, 19.2643°E)
Time: 13:32:58
(UTC+00:00)

COBE Rocket - Pass Details

Date: 15 June 2024
Orbit: 678 x 776 km, 97.1° (Epoch: 15 July)

Event Time Altitude Azimuth Distance (km) Brightness Sun altitude
Rises 00:18:39 0° 13° (NNE) 3,251 9.1 -13.2°
Reaches altitude 10° 00:20:58 10° 14° (NNE) 2,327 7.9 -13.1°
Maximum altitude 00:26:08 84° 103° (ESE) 788 4.1 -12.8°
Enters shadow 00:30:13 17° 191° (S) 1,898 5.4 -12.5°
